• Em Portugal
  • Lista de países
  • Para 7 dias
  • Temperatura da água
  • Mapas de satélite
  • Mapa do tempo
  • Widgets de tempo
  • user-avatar
    Iniciar Sessão

    Previsão horária em Zandzhan

    Hoje, 13 Novembro, Terça-feira

    Tempo Temperatura Precipitação Vento Pressão Humidade
    00:00 +6°C° 0 mm 2 m/s 617 mmHg 80%
    01:00 +6°C° 0.1 mm 2 m/s 616 mmHg 81%
    02:00 +5°C° 0.1 mm 2 m/s 616 mmHg 82%
    03:00 +4°C° 0 mm 3 m/s 616 mmHg 87%
    04:00 +5°C° 0.2 mm 2 m/s 616 mmHg 86%
    05:00 +5°C° 0.2 mm 2 m/s 616 mmHg 86%
    06:00 +4°C° 0.2 mm 2 m/s 616 mmHg 85%
    07:00 +5°C° 0.1 mm 2 m/s 616 mmHg 82%
    08:00 +5°C° 0.1 mm 2 m/s 617 mmHg 80%
    09:00 +5°C° 0.1 mm 2 m/s 617 mmHg 77%
    10:00 +6°C° 0.1 mm 2 m/s 617 mmHg 73%
    11:00 +7°C° 0.1 mm 2 m/s 617 mmHg 70%
    12:00 +7°C° 0.1 mm 2 m/s 617 mmHg 66%
    13:00 +7°C° 0 mm 3 m/s 617 mmHg 65%
    14:00 +8°C° 0 mm 3 m/s 617 mmHg 64%
    15:00 +8°C° 0 mm 3 m/s 617 mmHg 63%
    16:00 +7°C° 0 mm 3 m/s 617 mmHg 65%
    17:00 +7°C° 0 mm 3 m/s 616 mmHg 68%
    18:00 +5°C° 0 mm 3 m/s 616 mmHg 71%
    19:00 +5°C° 0 mm 3 m/s 616 mmHg 72%
    20:00 +5°C° 0 mm 2 m/s 616 mmHg 74%
    21:00 +5°C° 0 mm 2 m/s 616 mmHg 76%
    22:00 +4°C° 0 mm 2 m/s 616 mmHg 77%
    23:00 +4°C° 0 mm 2 m/s 616 mmHg 78%

    Amanhã, 14 Novembro, Quarta-feira

    Tempo Temperatura Precipitação Vento Pressão Humidade
    00:00 +4°C° 0 mm 2 m/s 616 mmHg 80%
    01:00 +3°C° 0 mm 2 m/s 616 mmHg 80%
    02:00 +3°C° 0 mm 2 m/s 615 mmHg 81%
    03:00 +3°C° 0 mm 2 m/s 615 mmHg 82%
    04:00 +3°C° 0.1 mm 2 m/s 615 mmHg 82%
    05:00 +3°C° 0.1 mm 2 m/s 615 mmHg 81%
    06:00 +3°C° 0.1 mm 2 m/s 615 mmHg 81%
    07:00 +3°C° 0.1 mm 2 m/s 615 mmHg 79%
    08:00 +4°C° 0.1 mm 2 m/s 615 mmHg 76%
    09:00 +4°C° 0.1 mm 2 m/s 615 mmHg 73%
    10:00 +5°C° 0 mm 2 m/s 615 mmHg 69%
    11:00 +5°C° 0 mm 3 m/s 615 mmHg 65%
    12:00 +7°C° 0 mm 3 m/s 615 mmHg 61%
    13:00 +7°C° 0 mm 3 m/s 615 mmHg 61%
    14:00 +7°C° 0 mm 3 m/s 615 mmHg 61%
    15:00 +7°C° 0 mm 3 m/s 614 mmHg 61%
    16:00 +7°C° 0 mm 3 m/s 614 mmHg 64%
    17:00 +5°C° 0 mm 3 m/s 614 mmHg 67%
    18:00 +5°C° 0 mm 3 m/s 614 mmHg 70%
    19:00 +5°C° 0.1 mm 3 m/s 614 mmHg 72%
    20:00 +4°C° 0.1 mm 3 m/s 614 mmHg 74%
    21:00 +4°C° 0.1 mm 3 m/s 614 mmHg 75%
    22:00 +5°C° 0.4 mm 2 m/s 614 mmHg 76%
    23:00 +5°C° 0.4 mm 2 m/s 614 mmHg 77%

    Depois de amanhã, 15 Novembro, Quinta-feira

    Tempo Temperatura Precipitação Vento Pressão Humidade
    00:00 +5°C° 0.4 mm 2 m/s 614 mmHg 78%
    01:00 +5°C° 0.4 mm 2 m/s 614 mmHg 79%
    02:00 +5°C° 0.4 mm 2 m/s 614 mmHg 79%
    03:00 +5°C° 0.4 mm 2 m/s 614 mmHg 80%
    04:00 +5°C° 0.2 mm 2 m/s 614 mmHg 80%
    05:00 +5°C° 0.2 mm 2 m/s 614 mmHg 81%
    06:00 +4°C° 0.2 mm 2 m/s 614 mmHg 82%
    07:00 +5°C° 0 mm 2 m/s 614 mmHg 78%
    08:00 +5°C° 0 mm 3 m/s 615 mmHg 75%
    09:00 +5°C° 0 mm 3 m/s 615 mmHg 71%
    10:00 +7°C° 0 mm 3 m/s 615 mmHg 67%
    11:00 +8°C° 0 mm 3 m/s 615 mmHg 63%
    12:00 +8°C° 0 mm 4 m/s 615 mmHg 58%
    13:00 +10°C° 0 mm 4 m/s 615 mmHg 57%
    14:00 +10°C° 0 mm 4 m/s 615 mmHg 55%
    15:00 +10°C° 0 mm 3 m/s 615 mmHg 53%
    16:00 +9°C° 0 mm 3 m/s 615 mmHg 56%
    17:00 +9°C° 0 mm 3 m/s 615 mmHg 59%
    18:00 +8°C° 0 mm 2 m/s 615 mmHg 62%
    19:00 +8°C° 0.1 mm 2 m/s 615 mmHg 65%
    20:00 +7°C° 0.1 mm 2 m/s 615 mmHg 67%
    21:00 +7°C° 0.1 mm 2 m/s 615 mmHg 69%
    22:00 +6°C° 0.1 mm 2 m/s 615 mmHg 70%
    23:00 +6°C° 0.1 mm 2 m/s 615 mmHg 71%

    16 Novembro, Sexta-feira

    Tempo Temperatura Precipitação Vento Pressão Humidade
    00:00 +6°C° 0.1 mm 2 m/s 615 mmHg 72%
    01:00 +6°C° 0.1 mm 2 m/s 615 mmHg 72%
    02:00 +5°C° 0.1 mm 2 m/s 615 mmHg 72%
    03:00 +5°C° 0.1 mm 2 m/s 614 mmHg 72%
    04:00 +5°C° 0 mm 2 m/s 614 mmHg 72%
    05:00 +5°C° 0 mm 2 m/s 615 mmHg 72%
    06:00 +5°C° 0 mm 2 m/s 615 mmHg 72%
    07:00 +6°C° 0.1 mm 2 m/s 615 mmHg 69%
    08:00 +7°C° 0.1 mm 2 m/s 616 mmHg 67%
    09:00 +7°C° 0.1 mm 2 m/s 617 mmHg 64%
    10:00 +8°C° 0.1 mm 2 m/s 617 mmHg 63%
    11:00 +9°C° 0.1 mm 2 m/s 617 mmHg 61%
    12:00 +10°C° 0.1 mm 2 m/s 617 mmHg 60%
    13:00 +10°C° 0 mm 2 m/s 617 mmHg 58%
    14:00 +10°C° 0 mm 2 m/s 617 mmHg 57%
    15:00 +12°C° 0 mm 2 m/s 617 mmHg 56%
    16:00 +10°C° 0 mm 2 m/s 617 mmHg 60%
    17:00 +9°C° 0 mm 2 m/s 616 mmHg 64%
    18:00 +8°C° 0 mm 2 m/s 616 mmHg 68%
    19:00 +8°C° 0 mm 2 m/s 616 mmHg 70%
    20:00 +7°C° 0 mm 2 m/s 616 mmHg 73%
    21:00 +7°C° 0 mm 2 m/s 617 mmHg 76%
    22:00 +7°C° 0 mm 2 m/s 616 mmHg 77%
    23:00 +6°C° 0 mm 2 m/s 616 mmHg 78%

    17 Novembro, Sábado

    Tempo Temperatura Precipitação Vento Pressão Humidade
    00:00 +6°C° 0 mm 2 m/s 616 mmHg 79%
    01:00 +6°C° 0 mm 2 m/s 616 mmHg 79%
    02:00 +6°C° 0 mm 2 m/s 616 mmHg 79%
    03:00 +6°C° 0 mm 1 m/s 616 mmHg 79%
    04:00 +6°C° 0 mm 1 m/s 616 mmHg 79%
    05:00 +6°C° 0 mm 1 m/s 616 mmHg 78%
    06:00 +6°C° 0 mm 1 m/s 616 mmHg 78%
    07:00 +6°C° 0 mm 2 m/s 616 mmHg 72%
    08:00 +7°C° 0 mm 2 m/s 617 mmHg 65%
    09:00 +8°C° 0 mm 2 m/s 618 mmHg 59%
    10:00 +9°C° 0 mm 3 m/s 618 mmHg 54%
    11:00 +10°C° 0 mm 3 m/s 618 mmHg 48%
    12:00 +11°C° 0 mm 4 m/s 618 mmHg 43%
    13:00 +11°C° 0 mm 4 m/s 617 mmHg 41%
    14:00 +12°C° 0 mm 4 m/s 617 mmHg 39%
    15:00 +12°C° 0 mm 3 m/s 617 mmHg 37%
    16:00 +11°C° 0 mm 3 m/s 617 mmHg 41%
    17:00 +10°C° 0 mm 2 m/s 617 mmHg 44%
    18:00 +10°C° 0 mm 1 m/s 616 mmHg 48%
    19:00 +9°C° 0 mm 1 m/s 616 mmHg 50%
    20:00 +9°C° 0 mm 1 m/s 616 mmHg 51%
    21:00 +8°C° 0 mm 1 m/s 616 mmHg 53%
    22:00 +8°C° 0 mm 1 m/s 615 mmHg 53%
    23:00 +7°C° 0 mm 1 m/s 615 mmHg 54%

    18 Novembro, Domingo

    Tempo Temperatura Precipitação Vento Pressão Humidade
    00:00 +7°C° 0 mm 1 m/s 615 mmHg 55%
    01:00 +7°C° 0 mm 1 m/s 614 mmHg 56%
    02:00 +7°C° 0 mm 1 m/s 614 mmHg 57%
    03:00 +5°C° 0 mm 2 m/s 614 mmHg 58%
    04:00 +5°C° 0 mm 2 m/s 614 mmHg 60%
    05:00 +5°C° 0 mm 2 m/s 614 mmHg 61%
    06:00 +5°C° 0 mm 2 m/s 614 mmHg 62%
    07:00 +6°C° 0 mm 2 m/s 614 mmHg 58%
    08:00 +7°C° 0 mm 3 m/s 615 mmHg 54%
    09:00 +8°C° 0 mm 3 m/s 615 mmHg 50%
    10:00 +8°C° 0 mm 4 m/s 615 mmHg 45%
    11:00 +9°C° 0 mm 5 m/s 615 mmHg 41%
    12:00 +10°C° 0 mm 6 m/s 615 mmHg 37%
    13:00 +10°C° 0 mm 6 m/s 615 mmHg 37%
    14:00 +10°C° 0 mm 7 m/s 614 mmHg 37%
    15:00 +10°C° 0 mm 7 m/s 614 mmHg 38%
    16:00 +9°C° 0 mm 6 m/s 614 mmHg 43%
    17:00 +8°C° 0 mm 5 m/s 614 mmHg 48%
    18:00 +7°C° 0 mm 4 m/s 614 mmHg 53%
    19:00 +7°C° 0 mm 4 m/s 613 mmHg 55%
    20:00 +7°C° 0 mm 4 m/s 613 mmHg 58%
    21:00 +7°C° 0 mm 3 m/s 613 mmHg 60%
    22:00 +6°C° 0.1 mm 4 m/s 613 mmHg 61%
    23:00 +6°C° 0.1 mm 4 m/s 613 mmHg 63%
    Mostrar mais